Location: Kalberh�ni
(46.4610°N, 7.2453°E)
Time: 17:45:56
(UTC+00:00)

Meteor 2-1 Rocket - Pass Details

Date: 27 October 2021
Orbit: 830 x 906 km, 81.3° (Epoch: 28 November)

Event Time Altitude Azimuth Distance (km) Brightness Sun altitude
Rises 17:33:22 0° 144° (SE) 3,413 7.1 -12.6°
Reaches altitude 10° 17:36:30 10° 127° (SE) 2,470 6.2 -13.1°
Enters shadow 17:38:09 15° 111° (ESE) 2,112 5.7 -13.4°
Exits shadow 17:44:33 - 38° (NE) 2,631 6.4 -14.5°
Sets 17:46:59 0° 25° (NNE) 3,390 7.1 -14.9°
